Time,TemperatureF,DewpointF,PressureIn,WindDirection,WindDirectionDegrees,WindSpeedMPH,WindSpeedGustMPH,Humidity,HourlyPrecipIn,Conditions,Clouds,dailyrainin,SoftwareType,DateUTC
2013-06-25 00:00:00,67.3,64.0,29.79,South,183,6.0,7.0,89,0.00,,SCT020,0.00,VWS V14.01,2013-06-25 05:00:00,
2013-06-25 00:06:00,67.1,63.8,29.79,South,183,6.0,7.0,89,0.00,,CLR,0.00,VWS V14.01,2013-06-25 05:06:00,
2013-06-25 00:11:00,67.1,63.8,29.79,South,183,7.0,7.0,89,0.00,,CLR,0.00,VWS V14.01,2013-06-25 05:11:00,
2013-06-25 00:15:00,68.8,64.4,29.79,South,183,3.0,7.0,86,0.00,,,0.00,VWS V15.00,2013-06-25 05:15:00,
2013-06-25 00:16:00,66.9,63.6,29.78,South,182,9.0,10.0,89,0.00,,CLR,0.00,VWS V14.01,2013-06-25 05:16:00,
2013-06-25 00:21:00,67.1,63.8,29.78,South,179,9.0,11.0,89,0.00,,CLR,0.00,VWS V14.01,2013-06-25 05:21:00,
2013-06-25 00:26:00,67.1,63.4,29.78,South,178,9.0,11.0,88,0.00,,CLR,0.00,VWS V14.01,2013-06-25 05:26:00,
2013-06-25 00:30:00,67.8,64.4,29.79,South,183,4.0,5.0,89,0.00,,,0.00,VWS V15.00,2013-06-25 05:30:00,
2013-06-25 00:31:00,67.1,63.4,29.79,South,177,9.0,9.0,88,0.00,,CLR,0.00,VWS V14.01,2013-06-25 05:31:00,
2013-06-25 00:36:00,67.1,63.4,29.79,South,177,9.0,11.0,88,0.00,,CLR,0.00,VWS V14.01,2013-06-25 05:36:00,
2013-06-25 00:41:00,66.9,63.2,29.79,South,176,11.0,13.0,88,0.00,,CLR,0.00,VWS V14.01,2013-06-25 05:41:00,
2013-06-25 00:45:00,67.4,64.1,29.79,South,183,5.0,7.0,89,0.00,,,0.00,VWS V15.00,2013-06-25 05:45:00,
2013-06-25 00:46:00,67.3,63.3,29.79,South,180,11.0,13.0,87,0.00,,CLR,0.00,VWS V14.01,2013-06-25 05:46:00,
2013-06-25 00:51:00,67.4,63.4,29.79,South,182,9.0,14.0,87,0.00,,CLR,0.00,VWS V14.01,2013-06-25 05:51:00,
2013-06-25 00:56:00,67.3,63.3,29.79,South,181,11.0,14.0,87,0.00,,CLR,0.00,VWS V14.01,2013-06-25 05:56:00,
2013-06-25 01:00:00,67.3,64.0,29.79,South,183,6.0,7.0,89,0.00,,,0.00,VWS V15.00,2013-06-25 06:00:00,
2013-06-25 01:01:00,67.3,63.3,29.79,South,181,6.0,7.0,87,0.00,,CLR,0.00,VWS V14.01,2013-06-25 06:01:00,
2013-06-25 01:06:00,67.1,63.1,29.79,South,177,10.0,10.0,87,0.00,,CLR,0.00,VWS V14.01,2013-06-25 06:06:00,
2013-06-25 01:11:00,66.8,62.8,29.79,South,171,11.0,12.0,87,0.00,,CLR,0.00,VWS V14.01,2013-06-25 06:11:00,
2013-06-25 01:15:00,66.9,63.6,29.78,South,183,8.0,10.0,89,0.00,,,0.00,VWS V15.00,2013-06-25 06:15:00,
2013-06-25 01:16:00,66.6,62.9,29.79,South,169,6.0,9.0,88,0.00,,CLR,0.00,VWS V14.01,2013-06-25 06:16:00,
2013-06-25 01:21:00,66.6,62.9,29.79,South,169,7.0,10.0,88,0.00,,CLR,0.00,VWS V14.01,2013-06-25 06:21:00,
2013-06-25 01:26:00,66.6,63.3,29.79,South,169,7.0,10.0,89,0.00,,CLR,0.00,VWS V14.01,2013-06-25 06:26:00,
2013-06-25 01:30:00,67.1,63.4,29.79,South,177,9.0,11.0,88,0.00,,,0.00,VWS V15.00,2013-06-25 06:30:00,
2013-06-25 01:31:00,66.4,63.1,29.78,SSE,168,5.0,7.0,89,0.00,,CLR,0.00,VWS V14.01,2013-06-25 06:31:00,
2013-06-25 01:36:00,66.3,63.0,29.78,SSE,168,5.0,9.0,89,0.00,,CLR,0.00,VWS V14.01,2013-06-25 06:36:00,
2013-06-25 01:41:00,66.3,63.0,29.78,SSE,168,9.0,9.0,89,0.00,,CLR,0.00,VWS V14.01,2013-06-25 06:41:00,
2013-06-25 01:45:00,67.3,63.6,29.79,South,180,12.0,14.0,88,0.00,,,0.00,VWS V15.00,2013-06-25 06:45:00,
2013-06-25 01:46:00,66.3,63.0,29.78,SSE,167,9.0,11.0,89,0.00,,CLR,0.00,VWS V14.01,2013-06-25 06:46:00,
2013-06-25 01:52:00,66.1,62.8,29.78,SSE,165,8.0,11.0,89,0.00,,CLR,0.00,VWS V14.01,2013-06-25 06:52:00,
2013-06-25 01:57:00,66.1,62.8,29.78,SSE,165,7.0,11.0,89,0.00,,CLR,0.00,VWS V14.01,2013-06-25 06:57:00,
2013-06-25 02:00:00,67.3,63.3,29.79,South,181,6.0,14.0,87,0.00,,,0.00,VWS V15.00,2013-06-25 07:00:00,
2013-06-25 02:02:00,66.0,63.0,29.78,SSE,165,8.0,8.0,90,0.00,,CLR,0.00,VWS V14.01,2013-06-25 07:02:00,
2013-06-25 02:07:00,66.0,63.0,29.78,SSE,165,5.0,8.0,90,0.00,,CLR,0.00,VWS V14.01,2013-06-25 07:07:00,
2013-06-25 02:12:00,65.8,62.8,29.78,SSE,165,6.0,8.0,90,0.00,,CLR,0.00,VWS V14.01,2013-06-25 07:12:00,
2013-06-25 02:15:00,66.8,63.1,29.79,South,169,7.0,12.0,88,0.00,,,0.00,VWS V15.00,2013-06-25 07:15:00,
2013-06-25 02:17:00,65.8,62.8,29.78,SSE,165,6.0,8.0,90,0.00,,CLR,0.00,VWS V14.01,2013-06-25 07:17:00,
2013-06-25 02:22:00,65.6,62.6,29.78,SSE,165,5.0,8.0,90,0.00,,CLR,0.00,VWS V14.01,2013-06-25 07:22:00,
2013-06-25 02:27:00,65.6,62.6,29.78,SSE,165,6.0,10.0,90,0.00,,CLR,0.00,VWS V14.01,2013-06-25 07:27:00,
2013-06-25 02:30:00,66.4,63.1,29.78,SSE,168,7.0,10.0,89,0.00,,,0.00,VWS V15.00,2013-06-25 07:30:00,
2013-06-25 02:32:00,65.6,62.6,29.78,SSE,165,5.0,8.0,90,0.00,,CLR,0.00,VWS V14.01,2013-06-25 07:32:00,
2013-06-25 02:37:00,65.5,62.8,29.78,SSE,165,4.0,8.0,91,0.00,,CLR,0.00,VWS V14.01,2013-06-25 07:37:00,
2013-06-25 02:42:00,65.3,62.6,29.78,SSE,165,5.0,8.0,91,0.00,,CLR,0.00,VWS V14.01,2013-06-25 07:42:00,
2013-06-25 02:45:00,66.3,63.0,29.78,SSE,168,7.0,10.0,89,0.00,,,0.00,VWS V15.00,2013-06-25 07:45:00,
2013-06-25 02:47:00,65.2,62.5,29.78,SSE,165,4.0,5.0,91,0.00,,CLR,0.00,VWS V14.01,2013-06-25 07:47:00,
2013-06-25 03:00:00,66.1,62.8,29.78,SSE,165,7.0,11.0,89,0.00,,,0.00,VWS V15.00,2013-06-25 08:00:00,
2013-06-25 03:09:00,63.9,61.5,29.78,SSE,165,3.0,5.0,92,0.00,,CLR,0.00,VWS V14.01,2013-06-25 08:09:00,
2013-06-25 03:14:00,63.5,61.1,29.78,SSE,165,4.0,5.0,92,0.00,,CLR,0.00,VWS V14.01,2013-06-25 08:14:00,
2013-06-25 03:15:00,65.8,62.8,29.78,SSE,165,6.0,10.0,90,0.00,,,0.00,VWS V15.00,2013-06-25 08:15:00,
2013-06-25 03:19:00,63.4,61.0,29.78,SSE,165,5.0,6.0,92,0.00,,CLR,0.00,VWS V14.01,2013-06-25 08:19:00,
2013-06-25 03:24:00,63.1,61.0,29.78,SSE,165,4.0,6.0,93,0.00,,CLR,0.00,VWS V14.01,2013-06-25 08:24:00,
2013-06-25 03:29:00,63.1,61.0,29.78,SSE,165,5.0,6.0,93,0.00,,CLR,0.00,VWS V14.01,2013-06-25 08:29:00,
2013-06-25 03:30:00,65.6,62.6,29.78,SSE,165,7.0,10.0,90,0.00,,,0.00,VWS V15.00,2013-06-25 08:30:00,
2013-06-25 03:34:00,63.4,61.7,29.78,SSE,165,5.0,6.0,94,0.00,,CLR,0.00,VWS V14.01,2013-06-25 08:34:00,
2013-06-25 03:39:00,63.9,62.1,29.78,SSE,165,5.0,7.0,94,0.00,,CLR,0.00,VWS V14.01,2013-06-25 08:39:00,
2013-06-25 03:44:00,64.0,62.2,29.78,SSE,165,5.0,7.0,94,0.00,,CLR,0.00,VWS V14.01,2013-06-25 08:44:00,
2013-06-25 03:45:00,65.3,62.6,29.78,SSE,165,5.0,8.0,91,0.00,,,0.00,VWS V15.00,2013-06-25 08:45:00,
2013-06-25 03:50:00,64.0,62.2,29.78,SSE,165,3.0,6.0,94,0.00,,CLR,0.00,VWS V14.01,2013-06-25 08:50:00,
2013-06-25 03:55:00,63.9,62.1,29.78,SSE,165,5.0,7.0,94,0.00,,CLR,0.00,VWS V14.01,2013-06-25 08:55:00,
2013-06-25 04:00:00,63.9,62.1,29.78,SSE,165,5.0,7.0,94,0.00,,CLR,0.00,VWS V14.01,2013-06-25 09:00:00,
2013-06-25 04:05:00,63.9,62.1,29.78,SSE,165,6.0,7.0,94,0.00,,CLR,0.00,VWS V14.01,2013-06-25 09:05:00,
2013-06-25 04:10:00,63.9,62.1,29.78,SSE,165,5.0,7.0,94,0.00,,CLR,0.00,VWS V14.01,2013-06-25 09:10:00,
2013-06-25 04:15:00,63.9,62.1,29.78,SSE,165,5.0,7.0,94,0.00,,CLR,0.00,VWS V14.01,2013-06-25 09:15:00,
2013-06-25 04:20:00,63.7,62.0,29.78,SSE,165,6.0,7.0,94,0.00,,CLR,0.00,VWS V14.01,2013-06-25 09:20:00,
2013-06-25 04:25:00,63.7,62.0,29.78,SSE,165,9.0,10.0,94,0.00,,CLR,0.00,VWS V14.01,2013-06-25 09:25:00,
2013-06-25 04:30:00,63.7,62.0,29.79,SSE,165,6.0,6.0,94,0.00,,CLR,0.00,VWS V14.01,2013-06-25 09:30:00,
2013-06-25 04:35:00,63.7,62.0,29.79,SSE,165,7.0,9.0,94,0.00,,CLR,0.00,VWS V14.01,2013-06-25 09:35:00,
2013-06-25 04:40:00,63.7,61.6,29.79,SSE,165,5.0,9.0,93,0.00,,CLR,0.00,VWS V14.01,2013-06-25 09:40:00,
2013-06-25 04:45:00,63.5,61.4,29.80,SSE,165,5.0,5.0,93,0.00,,CLR,0.00,VWS V14.01,2013-06-25 09:45:00,
2013-06-25 04:50:00,63.1,61.0,29.80,SSE,165,5.0,5.0,93,0.00,,CLR,0.00,VWS V14.01,2013-06-25 09:50:00,
2013-06-25 04:55:00,62.7,60.3,29.80,SSE,165,4.0,6.0,92,0.00,,CLR,0.00,VWS V14.01,2013-06-25 09:55:00,
2013-06-25 05:00:00,62.3,60.0,29.78,SSE,165,3.0,3.0,92,0.00,,CLR,0.00,VWS V14.01,2013-06-25 10:00:00,
2013-06-25 05:05:00,62.0,60.0,29.78,SSE,165,3.0,6.0,93,0.00,,CLR,0.00,VWS V14.01,2013-06-25 10:05:00,
2013-06-25 05:10:00,61.8,59.8,29.78,SSE,165,3.0,6.0,93,0.00,,CLR,0.00,VWS V14.01,2013-06-25 10:10:00,
2013-06-25 05:15:00,61.6,59.6,29.77,SSE,165,3.0,4.0,93,0.00,,CLR,0.00,VWS V14.01,2013-06-25 10:15:00,
2013-06-25 05:20:00,61.5,59.8,29.77,SSE,165,5.0,7.0,94,0.00,,CLR,0.00,VWS V14.01,2013-06-25 10:20:00,
2013-06-25 05:25:00,61.5,60.1,29.77,SSE,165,4.0,7.0,95,0.00,,CLR,0.00,VWS V14.01,2013-06-25 10:25:00,
2013-06-25 05:30:00,61.5,60.1,29.78,SSE,165,3.0,3.0,95,0.00,,CLR,0.00,VWS V14.01,2013-06-25 10:30:00,
2013-06-25 05:35:00,61.3,59.9,29.78,SSE,165,0.0,3.0,95,0.00,,CLR,0.00,VWS V14.01,2013-06-25 10:35:00,
2013-06-25 05:40:00,61.3,59.9,29.78,SSE,165,0.0,3.0,95,0.00,,SCT120,0.00,VWS V14.01,2013-06-25 10:40:00,
2013-06-25 05:45:00,61.3,59.9,29.78,SSE,165,0.0,1.0,95,0.00,,SCT120,0.00,VWS V14.01,2013-06-25 10:45:00,
2013-06-25 05:50:00,61.3,60.2,29.78,SSE,165,0.0,1.0,96,0.00,,SCT120,0.00,VWS V14.01,2013-06-25 10:50:00,
2013-06-25 05:55:00,61.5,60.3,29.78,SSE,165,0.0,1.0,96,0.00,,SCT120,0.00,VWS V14.01,2013-06-25 10:55:00,
2013-06-25 06:00:00,61.5,60.3,29.78,SSE,165,0.0,0.0,96,0.00,,SCT120,0.00,VWS V14.01,2013-06-25 11:00:00,
2013-06-25 06:06:00,61.3,60.2,29.78,SSE,165,0.0,0.0,96,0.00,,SCT120,0.00,VWS V14.01,2013-06-25 11:06:00,
2013-06-25 06:11:00,61.5,60.3,29.78,SSE,165,0.0,0.0,96,0.00,,SCT120,0.00,VWS V14.01,2013-06-25 11:11:00,
2013-06-25 06:15:00,61.6,59.6,29.77,SSE,165,4.0,6.0,93,0.00,,,0.00,VWS V15.00,2013-06-25 11:15:00,
2013-06-25 06:16:00,61.5,60.3,29.77,SSE,165,0.0,0.0,96,0.00,,SCT120,0.00,VWS V14.01,2013-06-25 11:16:00,
2013-06-25 06:21:00,61.6,60.5,29.77,SSE,165,0.0,0.0,96,0.00,,SCT120,0.00,VWS V14.01,2013-06-25 11:21:00,
2013-06-25 06:26:00,61.6,60.5,29.77,SSE,165,0.0,0.0,96,0.00,,SCT120,0.00,VWS V14.01,2013-06-25 11:26:00,
2013-06-25 06:30:00,61.5,60.1,29.78,SSE,165,2.0,7.0,95,0.00,,,0.00,VWS V15.00,2013-06-25 11:30:00,
2013-06-25 06:31:00,61.6,60.5,29.77,SSE,165,0.0,0.0,96,0.00,,SCT120,0.00,VWS V14.01,2013-06-25 11:31:00,
2013-06-25 06:36:00,61.8,60.7,29.77,SSE,165,0.0,0.0,96,0.00,,SCT120,0.00,VWS V14.01,2013-06-25 11:36:00,
2013-06-25 06:41:00,62.0,60.8,29.77,SSE,165,0.0,0.0,96,0.00,,CLR,0.00,VWS V14.01,2013-06-25 11:41:00,
2013-06-25 06:45:00,61.3,59.9,29.78,SSE,165,0.0,3.0,95,0.00,,,0.00,VWS V15.00,2013-06-25 11:45:00,
2013-06-25 06:46:00,62.1,61.2,29.77,SSE,165,0.0,0.0,97,0.00,,CLR,0.00,VWS V14.01,2013-06-25 11:46:00,
2013-06-25 06:51:00,62.4,61.5,29.77,SSE,165,0.0,0.0,97,0.00,,CLR,0.00,VWS V14.01,2013-06-25 11:51:00,
2013-06-25 06:56:00,62.6,61.7,29.77,SSE,165,0.0,0.0,97,0.00,,CLR,0.00,VWS V14.01,2013-06-25 11:56:00,
2013-06-25 07:00:00,61.5,60.3,29.78,SSE,165,0.0,1.0,96,0.00,,,0.00,VWS V15.00,2013-06-25 12:00:00,
2013-06-25 07:01:00,62.7,61.8,29.78,SSE,165,0.0,0.0,97,0.00,,CLR,0.00,VWS V14.01,2013-06-25 12:01:00,
2013-06-25 07:06:00,62.9,62.0,29.78,SSE,165,0.0,0.0,97,0.00,,CLR,0.00,VWS V14.01,2013-06-25 12:06:00,
2013-06-25 07:11:00,63.1,62.2,29.78,SSE,165,0.0,0.0,97,0.00,,CLR,0.00,VWS V14.01,2013-06-25 12:11:00,
2013-06-25 07:15:00,61.5,60.3,29.77,SSE,165,0.0,0.0,96,0.00,,,0.00,VWS V15.00,2013-06-25 12:15:00,
2013-06-25 07:16:00,63.2,62.3,29.78,SSE,165,0.0,0.0,97,0.00,,CLR,0.00,VWS V14.01,2013-06-25 12:16:00,
2013-06-25 07:21:00,63.4,62.5,29.78,SSE,165,0.0,0.0,97,0.00,,CLR,0.00,VWS V14.01,2013-06-25 12:21:00,
2013-06-25 07:26:00,63.5,62.3,29.78,SSE,165,0.0,0.0,96,0.00,,CLR,0.00,VWS V14.01,2013-06-25 12:26:00,
2013-06-25 07:30:00,61.6,60.5,29.77,SSE,165,0.0,0.0,96,0.00,,,0.00,VWS V15.00,2013-06-25 12:30:00,
2013-06-25 07:31:00,63.9,62.7,29.79,SSE,165,0.0,0.0,96,0.00,,CLR,0.00,VWS V14.01,2013-06-25 12:31:00,
2013-06-25 07:36:00,64.0,62.8,29.79,SSE,165,0.0,0.0,96,0.00,,CLR,0.00,VWS V14.01,2013-06-25 12:36:00,
2013-06-25 07:41:00,64.7,63.8,29.79,SSE,165,4.0,6.0,97,0.00,,CLR,0.00,VWS V14.01,2013-06-25 12:41:00,
2013-06-25 07:45:00,62.1,61.2,29.77,SSE,165,0.0,0.0,97,0.00,,,0.00,VWS V15.00,2013-06-25 12:45:00,
2013-06-25 07:46:00,65.2,64.0,29.79,SSE,165,3.0,4.0,96,0.00,,CLR,0.00,VWS V14.01,2013-06-25 12:46:00,
2013-06-25 07:51:00,65.5,64.3,29.79,SSE,165,5.0,6.0,96,0.00,,CLR,0.00,VWS V14.01,2013-06-25 12:51:00,
2013-06-25 07:57:00,66.0,64.5,29.79,SSE,165,6.0,9.0,95,0.00,,CLR,0.00,VWS V14.01,2013-06-25 12:57:00,
2013-06-25 08:00:00,62.7,61.8,29.78,SSE,165,0.0,0.0,97,0.00,,,0.00,VWS V15.00,2013-06-25 13:00:00,
2013-06-25 08:02:00,66.1,64.3,29.80,SSE,165,6.0,10.0,94,0.00,,CLR,0.00,VWS V14.01,2013-06-25 13:02:00,
2013-06-25 08:07:00,66.4,64.3,29.80,SSE,165,8.0,10.0,93,0.00,,CLR,0.00,VWS V14.01,2013-06-25 13:07:00,
2013-06-25 08:12:00,66.8,64.4,29.80,SSE,165,6.0,10.0,92,0.00,,CLR,0.00,VWS V14.01,2013-06-25 13:12:00,
2013-06-25 08:15:00,63.2,62.3,29.78,SSE,165,0.0,0.0,97,0.00,,,0.00,VWS V15.00,2013-06-25 13:15:00,
2013-06-25 08:17:00,66.9,64.2,29.79,SSE,159,4.0,9.0,91,0.00,,CLR,0.00,VWS V14.01,2013-06-25 13:17:00,
2013-06-25 08:22:00,67.3,64.3,29.79,SSE,150,9.0,12.0,90,0.00,,CLR,0.00,VWS V14.01,2013-06-25 13:22:00,
2013-06-25 08:27:00,67.6,64.6,29.79,SSE,151,10.0,12.0,90,0.00,,CLR,0.00,VWS V14.01,2013-06-25 13:27:00,
2013-06-25 08:30:00,63.7,62.5,29.79,SSE,165,0.0,0.0,96,0.00,,,0.00,VWS V15.00,2013-06-25 13:30:00,
2013-06-25 08:32:00,67.9,64.5,29.78,SE,143,7.0,10.0,89,0.00,,CLR,0.00,VWS V14.01,2013-06-25 13:32:00,
2013-06-25 08:37:00,68.4,64.7,29.78,SSE,150,17.0,17.0,88,0.00,,CLR,0.00,VWS V14.01,2013-06-25 13:37:00,
2013-06-25 08:42:00,68.8,64.4,29.78,SE,142,11.0,17.0,86,0.00,,CLR,0.00,VWS V14.01,2013-06-25 13:42:00,
2013-06-25 08:45:00,65.0,63.8,29.79,SSE,165,3.0,6.0,96,0.00,,,0.00,VWS V15.00,2013-06-25 13:45:00,
2013-06-25 08:47:00,69.3,64.6,29.78,SSE,163,10.0,12.0,85,0.00,,CLR,0.00,VWS V14.01,2013-06-25 13:47:00,
2013-06-25 08:52:00,69.6,64.6,29.78,SSE,157,10.0,13.0,84,0.00,,CLR,0.00,VWS V14.01,2013-06-25 13:52:00,
2013-06-25 08:57:00,70.1,64.7,29.78,SSE,156,10.0,15.0,83,0.00,,CLR,0.00,VWS V14.01,2013-06-25 13:57:00,
2013-06-25 09:00:00,66.1,64.3,29.80,SSE,165,9.0,10.0,94,0.00,,,0.00,VWS V15.00,2013-06-25 14:00:00,
2013-06-25 09:02:00,70.3,64.6,29.77,SSE,152,10.0,14.0,82,0.00,,CLR,0.00,VWS V14.01,2013-06-25 14:02:00,
2013-06-25 09:07:00,70.4,64.7,29.77,SSE,155,10.0,14.0,82,0.00,,CLR,0.00,VWS V14.01,2013-06-25 14:07:00,
2013-06-25 09:12:00,71.1,64.6,29.77,SE,143,9.0,17.0,80,0.00,,CLR,0.00,VWS V14.01,2013-06-25 14:12:00,
2013-06-25 09:15:00,66.8,64.1,29.79,SSE,159,9.0,12.0,91,0.00,,,0.00,VWS V15.00,2013-06-25 14:15:00,
2013-06-25 09:17:00,71.3,64.5,29.77,SSE,150,12.0,13.0,79,0.00,,CLR,0.00,VWS V14.01,2013-06-25 14:17:00,
2013-06-25 09:22:00,71.5,65.0,29.77,SSE,161,13.0,16.0,80,0.00,,CLR,0.00,VWS V14.01,2013-06-25 14:22:00,
2013-06-25 09:27:00,71.6,64.8,29.77,SE,146,16.0,19.0,79,0.00,,CLR,0.00,VWS V14.01,2013-06-25 14:27:00,
2013-06-25 09:30:00,67.8,64.4,29.78,SE,144,5.0,15.0,89,0.00,,,0.00,VWS V15.00,2013-06-25 14:30:00,
2013-06-25 09:32:00,72.1,65.6,29.78,SSE,153,13.0,14.0,80,0.00,,CLR,0.00,VWS V14.01,2013-06-25 14:32:00,
2013-06-25 09:37:00,72.5,65.6,29.78,SSE,158,13.0,18.0,79,0.00,,CLR,0.00,VWS V14.01,2013-06-25 14:37:00,
2013-06-25 09:42:00,72.8,64.8,29.78,SSE,163,16.0,18.0,76,0.00,,CLR,0.00,VWS V14.01,2013-06-25 14:42:00,
2013-06-25 09:45:00,69.1,64.7,29.78,SSE,147,5.0,17.0,86,0.00,,,0.00,VWS V15.00,2013-06-25 14:45:00,
2013-06-25 09:47:00,73.2,65.2,29.77,SSE,153,12.0,16.0,76,0.00,,CLR,0.00,VWS V14.01,2013-06-25 14:47:00,
2013-06-25 09:52:00,73.7,65.3,29.77,SE,131,12.0,17.0,75,0.00,,CLR,0.00,VWS V14.01,2013-06-25 14:52:00,
2013-06-25 09:57:00,74.2,65.4,29.77,SE,142,12.0,17.0,74,0.00,,CLR,0.00,VWS V14.01,2013-06-25 14:57:00,
2013-06-25 10:00:00,70.3,64.9,29.77,SSE,156,9.0,15.0,83,0.00,,,0.00,VWS V15.00,2013-06-25 15:00:00,
2013-06-25 10:02:00,74.7,65.1,29.76,SSE,155,12.0,14.0,72,0.00,,CLR,0.00,VWS V14.01,2013-06-25 15:02:00,
2013-06-25 10:07:00,75.3,66.1,29.76,SSE,148,15.0,18.0,73,0.00,,CLR,0.00,VWS V14.01,2013-06-25 15:07:00,
2013-06-25 10:13:00,75.6,65.1,29.76,SSE,151,12.0,18.0,70,0.00,,CLR,0.00,VWS V14.01,2013-06-25 15:13:00,
2013-06-25 10:15:00,71.3,64.8,29.77,SE,146,12.0,17.0,80,0.00,,,0.00,VWS V15.00,2013-06-25 15:15:00,
2013-06-25 10:18:00,76.1,65.2,29.76,SE,146,10.0,15.0,69,0.00,,CLR,0.00,VWS V14.01,2013-06-25 15:18:00,
2013-06-25 10:23:00,76.5,65.6,29.76,SSE,166,11.0,15.0,69,0.00,,CLR,0.00,VWS V14.01,2013-06-25 15:23:00,
2013-06-25 10:28:00,76.7,64.9,29.76,SSE,148,14.0,18.0,67,0.00,,CLR,0.00,VWS V14.01,2013-06-25 15:28:00,
2013-06-25 10:30:00,71.8,64.9,29.78,SSE,150,13.0,19.0,79,0.00,,,0.00,VWS V15.00,2013-06-25 15:30:00,
2013-06-25 10:33:00,76.8,64.6,29.76,SE,139,10.0,15.0,66,0.00,,CLR,0.00,VWS V14.01,2013-06-25 15:33:00,
2013-06-25 10:38:00,77.2,65.0,29.76,SE,144,7.0,15.0,66,0.00,,CLR,0.00,VWS V14.01,2013-06-25 15:38:00,
2013-06-25 10:43:00,77.6,65.8,29.76,SSE,153,10.0,15.0,67,0.00,,CLR,0.00,VWS V14.01,2013-06-25 15:43:00,
2013-06-25 10:45:00,73.0,65.4,29.77,SSE,151,10.0,18.0,77,0.00,,,0.00,VWS V15.00,2013-06-25 15:45:00,
2013-06-25 10:48:00,78.3,65.6,29.75,South,171,4.0,12.0,65,0.00,,CLR,0.00,VWS V14.01,2013-06-25 15:48:00,
2013-06-25 10:53:00,78.6,65.0,29.75,SSE,168,12.0,15.0,63,0.00,,CLR,0.00,VWS V14.01,2013-06-25 15:53:00,
2013-06-25 10:58:00,79.4,65.7,29.75,SE,143,6.0,15.0,63,0.00,,CLR,0.00,VWS V14.01,2013-06-25 15:58:00,
2013-06-25 11:00:00,74.4,64.8,29.76,SSE,166,13.0,17.0,72,0.00,,,0.00,VWS V15.00,2013-06-25 16:00:00,
2013-06-25 11:03:00,79.8,64.7,29.75,SE,138,2.0,9.0,60,0.00,,CLR,0.00,VWS V14.01,2013-06-25 16:03:00,
2013-06-25 11:08:00,80.1,65.9,29.75,SSE,152,9.0,10.0,62,0.00,,CLR,0.00,VWS V14.01,2013-06-25 16:08:00,
2013-06-25 11:13:00,79.8,65.2,29.75,SE,144,10.0,16.0,61,0.00,,CLR,0.00,VWS V14.01,2013-06-25 16:13:00,
2013-06-25 11:15:00,75.8,64.9,29.76,South,177,12.0,18.0,69,0.00,,,0.00,VWS V15.00,2013-06-25 16:15:00,
2013-06-25 11:18:00,79.4,64.8,29.75,SSE,149,7.0,14.0,61,0.00,,CLR,0.00,VWS V14.01,2013-06-25 16:18:00,
2013-06-25 11:23:00,79.2,65.1,29.75,SE,135,5.0,14.0,62,0.00,,CLR,0.00,VWS V14.01,2013-06-25 16:23:00,
2013-06-25 11:28:00,79.6,66.4,29.75,SE,135,10.0,14.0,64,0.00,,CLR,0.00,VWS V14.01,2013-06-25 16:28:00,
2013-06-25 11:30:00,76.8,65.0,29.76,SE,135,14.0,18.0,67,0.00,,,0.00,VWS V15.00,2013-06-25 16:30:00,
2013-06-25 11:33:00,79.9,65.3,29.75,East,97,6.0,12.0,61,0.00,,CLR,0.00,VWS V14.01,2013-06-25 16:33:00,
2013-06-25 11:38:00,80.3,64.7,29.75,SSE,150,10.0,12.0,59,0.00,,CLR,0.00,VWS V14.01,2013-06-25 16:38:00,
2013-06-25 11:44:00,80.1,65.4,29.75,SE,126,6.0,12.0,61,0.00,,CLR,0.00,VWS V14.01,2013-06-25 16:44:00,
2013-06-25 11:45:00,77.9,65.6,29.75,SSE,157,9.0,15.0,66,0.00,,,0.00,VWS V15.00,2013-06-25 16:45:00,
2013-06-25 11:49:00,80.1,65.0,29.75,ESE,108,5.0,10.0,60,0.00,,CLR,0.00,VWS V14.01,2013-06-25 16:49:00,
2013-06-25 11:54:00,79.8,65.6,29.75,SE,126,9.0,11.0,62,0.00,,CLR,0.00,VWS V14.01,2013-06-25 16:54:00,
2013-06-25 11:59:00,79.4,64.8,29.75,SE,141,9.0,11.0,61,0.00,,CLR,0.00,VWS V14.01,2013-06-25 16:59:00,
2013-06-25 12:00:00,79.6,65.4,29.75,SE,138,9.0,15.0,62,0.00,,,0.00,VWS V15.00,2013-06-25 17:00:00,
2013-06-25 12:04:00,79.8,65.2,29.74,SE,141,6.0,12.0,61,0.00,,CLR,0.00,VWS V14.01,2013-06-25 17:04:00,
2013-06-25 12:09:00,80.1,64.5,29.74,SE,146,6.0,13.0,59,0.00,,CLR,0.00,VWS V14.01,2013-06-25 17:09:00,
2013-06-25 12:14:00,80.7,66.0,29.74,ESE,105,2.0,13.0,61,0.00,,CLR,0.00,VWS V14.01,2013-06-25 17:14:00,
2013-06-25 12:15:00,79.6,64.5,29.75,ESE,122,6.0,16.0,60,0.00,,,0.00,VWS V15.00,2013-06-25 17:15:00,
2013-06-25 12:19:00,81.4,65.2,29.75,ESE,102,7.0,13.0,58,0.00,,CLR,0.00,VWS V14.01,2013-06-25 17:19:00,
2013-06-25 12:24:00,81.8,65.6,29.75,SSE,156,9.0,13.0,58,0.00,,CLR,0.00,VWS V14.01,2013-06-25 17:24:00,
2013-06-25 12:29:00,82.0,66.3,29.75,South,174,8.0,13.0,59,0.00,,CLR,0.00,VWS V14.01,2013-06-25 17:29:00,
2013-06-25 12:30:00,79.8,65.6,29.75,SE,134,6.0,14.0,62,0.00,,,0.00,VWS V15.00,2013-06-25 17:30:00,
2013-06-25 12:34:00,82.4,65.7,29.75,SSE,163,14.0,14.0,57,0.00,,CLR,0.00,VWS V14.01,2013-06-25 17:34:00,
2013-06-25 12:39:00,82.6,65.8,29.75,SSE,161,15.0,16.0,57,0.00,,CLR,0.00,VWS V14.01,2013-06-25 17:39:00,
2013-06-25 12:44:00,82.6,66.3,29.75,SSE,149,7.0,16.0,58,0.00,,CLR,0.00,VWS V14.01,2013-06-25 17:44:00,
2013-06-25 12:45:00,80.1,65.9,29.75,SE,141,8.0,12.0,62,0.00,,,0.00,VWS V15.00,2013-06-25 17:45:00,
2013-06-25 12:50:00,83.4,66.1,29.75,SSE,151,11.0,13.0,56,0.00,,CLR,0.00,VWS V14.01,2013-06-25 17:50:00,
2013-06-25 12:55:00,83.4,67.6,29.75,SE,134,5.0,14.0,59,0.00,,CLR,0.00,VWS V14.01,2013-06-25 17:55:00,
2013-06-25 13:00:00,83.8,66.4,29.75,SE,137,3.0,6.0,56,0.00,,CLR,0.00,VWS V14.01,2013-06-25 18:00:00,
2013-06-25 13:05:00,84.3,67.4,29.75,SSE,153,10.0,14.0,57,0.00,,CLR,0.00,VWS V14.01,2013-06-25 18:05:00,
2013-06-25 13:10:00,84.1,66.2,29.75,SE,137,9.0,17.0,55,0.00,,CLR,0.00,VWS V14.01,2013-06-25 18:10:00,
2013-06-25 13:15:00,84.1,66.2,29.75,SSE,156,4.0,7.0,55,0.00,,CLR,0.00,VWS V14.01,2013-06-25 18:15:00,
2013-06-25 13:20:00,84.0,66.1,29.75,SSE,161,13.0,15.0,55,0.00,,CLR,0.00,VWS V14.01,2013-06-25 18:20:00,
2013-06-25 13:25:00,84.1,65.7,29.75,South,182,7.0,15.0,54,0.00,,CLR,0.00,VWS V14.01,2013-06-25 18:25:00,
2013-06-25 13:30:00,84.3,66.4,29.74,SSE,168,12.0,13.0,55,0.00,,CLR,0.00,VWS V14.01,2013-06-25 18:30:00,
2013-06-25 13:35:00,84.3,66.9,29.74,SSW,199,10.0,15.0,56,0.00,,CLR,0.00,VWS V14.01,2013-06-25 18:35:00,
2013-06-25 13:40:00,85.1,66.6,29.74,SE,146,14.0,16.0,54,0.00,,CLR,0.00,VWS V14.01,2013-06-25 18:40:00,
2013-06-25 13:45:00,84.7,65.7,29.74,SSE,162,10.0,11.0,53,0.00,,CLR,0.00,VWS V14.01,2013-06-25 18:45:00,
2013-06-25 13:51:00,84.9,65.9,29.74,SSE,166,8.0,15.0,53,0.00,,CLR,0.00,VWS V14.01,2013-06-25 18:51:00,
2013-06-25 13:56:00,85.3,66.2,29.74,SSE,161,15.0,18.0,53,0.00,,CLR,0.00,VWS V14.01,2013-06-25 18:56:00,
2013-06-25 14:00:00,83.8,66.4,29.75,SE,137,6.0,14.0,56,0.00,,,0.00,VWS V15.00,2013-06-25 19:00:00,
2013-06-25 14:01:00,85.3,65.7,29.74,SSE,161,7.0,11.0,52,0.00,,CLR,0.00,VWS V14.01,2013-06-25 19:01:00,
2013-06-25 14:06:00,85.3,65.7,29.74,SSE,151,13.0,13.0,52,0.00,,CLR,0.00,VWS V14.01,2013-06-25 19:06:00,
2013-06-25 14:11:00,84.9,65.9,29.74,SSE,166,9.0,13.0,53,0.00,,CLR,0.00,VWS V14.01,2013-06-25 19:11:00,
2013-06-25 14:15:00,84.0,66.1,29.75,SSE,153,5.0,17.0,55,0.00,,,0.00,VWS V15.00,2013-06-25 19:15:00,
2013-06-25 14:16:00,84.7,66.2,29.74,SE,142,10.0,10.0,54,0.00,,CLR,0.00,VWS V14.01,2013-06-25 19:16:00,
2013-06-25 14:21:00,84.1,66.2,29.74,South,181,5.0,12.0,55,0.00,,CLR,0.00,VWS V14.01,2013-06-25 19:21:00,
2013-06-25 14:26:00,84.5,66.1,29.74,South,190,8.0,13.0,54,0.00,,CLR,0.00,VWS V14.01,2013-06-25 19:26:00,
2013-06-25 14:30:00,84.3,66.9,29.74,SE,146,10.0,15.0,56,0.00,,,0.00,VWS V15.00,2013-06-25 19:30:00,
2013-06-25 14:31:00,84.1,66.2,29.74,SSE,156,10.0,12.0,55,0.00,,CLR,0.00,VWS V14.01,2013-06-25 19:31:00,
2013-06-25 14:36:00,84.0,66.6,29.74,SE,140,6.0,12.0,56,0.00,,CLR,0.00,VWS V14.01,2013-06-25 19:36:00,
2013-06-25 14:41:00,84.3,65.9,29.74,SE,144,7.0,15.0,54,0.00,,CLR,0.00,VWS V14.01,2013-06-25 19:41:00,
2013-06-25 14:45:00,84.7,65.7,29.74,SSE,160,10.0,19.0,53,0.00,,,0.00,VWS V15.00,2013-06-25 19:45:00,
2013-06-25 14:46:00,84.3,66.4,29.73,SE,143,7.0,9.0,55,0.00,,CLR,0.00,VWS V14.01,2013-06-25 19:46:00,
2013-06-25 14:51:00,83.4,66.6,29.73,SSE,149,11.0,18.0,57,0.00,,CLR,0.00,VWS V14.01,2013-06-25 19:51:00,
2013-06-25 14:56:00,83.2,67.9,29.73,SSE,155,6.0,18.0,60,0.00,,CLR,0.00,VWS V14.01,2013-06-25 19:56:00,
2013-06-25 15:00:00,85.3,65.7,29.74,SSE,162,8.0,18.0,52,0.00,,,0.00,VWS V15.00,2013-06-25 20:00:00,
2013-06-25 15:01:00,84.1,66.2,29.74,SSE,164,12.0,15.0,55,0.00,,CLR,0.00,VWS V14.01,2013-06-25 20:01:00,
2013-06-25 15:06:00,83.2,65.4,29.74,SSE,161,5.0,15.0,55,0.00,,SCT041,0.00,VWS V14.01,2013-06-25 20:06:00,
2013-06-25 15:11:00,83.6,66.8,29.74,ESE,110,10.0,15.0,57,0.00,,SCT041,0.00,VWS V14.01,2013-06-25 20:11:00,
2013-06-25 15:15:00,84.7,66.8,29.74,SSE,150,8.0,13.0,55,0.00,,,0.00,VWS V15.00,2013-06-25 20:15:00,
2013-06-25 15:16:00,84.1,66.2,29.73,ESE,107,2.0,10.0,55,0.00,,SCT041,0.00,VWS V14.01,2013-06-25 20:16:00,
2013-06-25 15:21:00,85.1,69.2,29.73,SE,145,11.0,11.0,59,0.00,,SCT041,0.00,VWS V14.01,2013-06-25 20:21:00,
2013-06-25 15:26:00,84.5,66.6,29.73,SE,146,7.0,14.0,55,0.00,,SCT041,0.00,VWS V14.01,2013-06-25 20:26:00,
2013-06-25 15:30:00,84.3,66.9,29.74,South,175,12.0,14.0,56,0.00,,,0.00,VWS V15.00,2013-06-25 20:30:00,
2013-06-25 15:31:00,84.5,66.1,29.73,SE,145,6.0,13.0,54,0.00,,SCT041,0.00,VWS V14.01,2013-06-25 20:31:00,
2013-06-25 15:36:00,85.3,66.8,29.73,SE,142,9.0,14.0,54,0.00,,SCT041,0.00,VWS V14.01,2013-06-25 20:36:00,
2013-06-25 15:42:00,86.1,66.4,29.73,South,172,7.0,14.0,52,0.00,,SCT041,0.00,VWS V14.01,2013-06-25 20:42:00,
2013-06-25 15:45:00,84.5,67.1,29.73,SE,141,8.0,15.0,56,0.00,,,0.00,VWS V15.00,2013-06-25 20:45:00,
2013-06-25 15:47:00,86.3,66.1,29.73,SSE,156,5.0,14.0,51,0.00,,SCT041,0.00,VWS V14.01,2013-06-25 20:47:00,
2013-06-25 15:52:00,86.3,67.2,29.73,ESE,121,8.0,14.0,53,0.00,,SCT041,0.00,VWS V14.01,2013-06-25 20:52:00,
2013-06-25 15:57:00,85.9,65.7,29.73,ESE,122,1.0,14.0,51,0.00,,SCT041,0.00,VWS V14.01,2013-06-25 20:57:00,
2013-06-25 16:00:00,84.1,67.2,29.74,SSE,167,13.0,18.0,57,0.00,,,0.00,VWS V15.00,2013-06-25 21:00:00,
2013-06-25 16:02:00,86.3,67.2,29.72,ESE,123,5.0,5.0,53,0.00,,BKN041,0.00,VWS V14.01,2013-06-25 21:02:00,
2013-06-25 16:07:00,87.0,66.1,29.72,SE,132,4.0,9.0,50,0.00,,BKN041,0.00,VWS V14.01,2013-06-25 21:07:00,
2013-06-25 16:12:00,86.3,66.6,29.72,SE,133,9.0,14.0,52,0.00,,BKN041,0.00,VWS V14.01,2013-06-25 21:12:00,
2013-06-25 16:15:00,84.1,67.2,29.73,ESE,116,8.0,15.0,57,0.00,,,0.00,VWS V15.00,2013-06-25 21:15:00,
2013-06-25 16:17:00,86.1,65.9,29.72,SE,136,0.0,6.0,51,0.00,,BKN041,0.00,VWS V14.01,2013-06-25 21:17:00,
2013-06-25 16:22:00,86.3,67.7,29.72,SE,134,9.0,13.0,54,0.00,,BKN041,0.00,VWS V14.01,2013-06-25 21:22:00,
2013-06-25 16:27:00,85.7,65.5,29.72,SSE,151,8.0,13.0,51,0.00,,BKN041,0.00,VWS V14.01,2013-06-25 21:27:00,
2013-06-25 16:30:00,84.3,67.9,29.73,SE,141,11.0,14.0,58,0.00,,,0.00,VWS V15.00,2013-06-25 21:30:00,
2013-06-25 16:32:00,85.7,66.6,29.71,SSE,150,13.0,16.0,53,0.00,,SCT043,0.00,VWS V14.01,2013-06-25 21:32:00,
2013-06-25 16:37:00,85.7,66.6,29.71,ESE,111,6.0,16.0,53,0.00,,SCT043,0.00,VWS V14.01,2013-06-25 21:37:00,
2013-06-25 16:42:00,85.7,66.1,29.71,ESE,120,3.0,16.0,52,0.00,,SCT043,0.00,VWS V14.01,2013-06-25 21:42:00,
2013-06-25 16:45:00,86.3,66.6,29.73,South,173,11.0,15.0,52,0.00,,,0.00,VWS V15.00,2013-06-25 21:45:00,
2013-06-25 16:47:00,85.5,66.4,29.72,ESE,108,6.0,8.0,53,0.00,,SCT043,0.00,VWS V14.01,2013-06-25 21:47:00,
2013-06-25 16:52:00,85.7,66.1,29.72,ESE,108,5.0,9.0,52,0.00,,SCT043,0.00,VWS V14.01,2013-06-25 21:52:00,
2013-06-25 16:57:00,85.7,67.7,29.72,SSE,164,9.0,11.0,55,0.00,,SCT043,0.00,VWS V14.01,2013-06-25 21:57:00,
2013-06-25 17:00:00,86.1,66.4,29.72,ESE,123,3.0,14.0,52,0.00,,,0.00,VWS V15.00,2013-06-25 22:00:00,
2013-06-25 17:02:00,85.5,66.4,29.71,SE,144,5.0,12.0,53,0.00,,CLR,0.00,VWS V14.01,2013-06-25 22:02:00,
2013-06-25 17:07:00,85.3,66.2,29.71,SE,139,10.0,14.0,53,0.00,,CLR,0.00,VWS V14.01,2013-06-25 22:07:00,
2013-06-25 17:12:00,85.1,66.1,29.71,SE,144,3.0,14.0,53,0.00,,CLR,0.00,VWS V14.01,2013-06-25 22:12:00,
2013-06-25 17:15:00,85.9,66.8,29.72,SE,136,5.0,14.0,53,0.00,,,0.00,VWS V15.00,2013-06-25 22:15:00,
2013-06-25 17:17:00,84.7,65.7,29.72,SE,137,6.0,15.0,53,0.00,,CLR,0.00,VWS V14.01,2013-06-25 22:17:00,
2013-06-25 17:22:00,84.5,66.1,29.72,SE,139,9.0,15.0,54,0.00,,CLR,0.00,VWS V14.01,2013-06-25 22:22:00,
2013-06-25 17:27:00,84.3,65.9,29.72,SE,137,15.0,16.0,54,0.00,,CLR,0.00,VWS V14.01,2013-06-25 22:27:00,
2013-06-25 17:30:00,85.7,66.1,29.71,SSE,160,10.0,13.0,52,0.00,,,0.00,VWS V15.00,2013-06-25 22:30:00,
2013-06-25 17:32:00,84.5,67.1,29.72,SE,132,4.0,10.0,56,0.00,,CLR,0.00,VWS V14.01,2013-06-25 22:32:00,
2013-06-25 17:37:00,84.3,65.9,29.72,SSE,161,13.0,14.0,54,0.00,,CLR,0.00,VWS V14.01,2013-06-25 22:37:00,
2013-06-25 17:42:00,84.0,67.1,29.72,SE,145,8.0,19.0,57,0.00,,CLR,0.00,VWS V14.01,2013-06-25 22:42:00,
2013-06-25 17:45:00,85.5,66.4,29.72,ESE,118,8.0,16.0,53,0.00,,,0.00,VWS V15.00,2013-06-25 22:45:00,
2013-06-25 17:47:00,84.0,66.6,29.72,SE,140,13.0,14.0,56,0.00,,CLR,0.00,VWS V14.01,2013-06-25 22:47:00,
2013-06-25 17:52:00,83.8,67.0,29.72,SE,125,10.0,14.0,57,0.00,,CLR,0.00,VWS V14.01,2013-06-25 22:52:00,
2013-06-25 17:57:00,83.4,67.1,29.72,SE,124,5.0,16.0,58,0.00,,CLR,0.00,VWS V14.01,2013-06-25 22:57:00,
2013-06-25 18:00:00,85.7,67.2,29.71,SSE,168,9.0,11.0,54,0.00,,,0.00,VWS V15.00,2013-06-25 23:00:00,
2013-06-25 18:03:00,83.6,67.8,29.72,SE,137,12.0,12.0,59,0.00,,SCT043,0.00,VWS V14.01,2013-06-25 23:03:00,
2013-06-25 18:08:00,83.4,66.6,29.72,ESE,109,8.0,13.0,57,0.00,,SCT043,0.00,VWS V14.01,2013-06-25 23:08:00,
2013-06-25 18:13:00,82.6,66.3,29.72,ESE,108,4.0,15.0,58,0.00,,SCT043,0.00,VWS V14.01,2013-06-25 23:13:00,
2013-06-25 18:15:00,84.9,66.9,29.72,SSE,153,12.0,15.0,55,0.00,,,0.00,VWS V15.00,2013-06-25 23:15:00,
2013-06-25 18:18:00,82.4,67.6,29.71,ESE,112,1.0,10.0,61,0.00,,SCT043,0.00,VWS V14.01,2013-06-25 23:18:00,
2013-06-25 18:23:00,82.4,66.7,29.71,SSE,148,11.0,13.0,59,0.00,,SCT043,0.00,VWS V14.01,2013-06-25 23:23:00,
2013-06-25 18:28:00,82.0,67.2,29.71,SSE,149,9.0,14.0,61,0.00,,SCT043,0.00,VWS V14.01,2013-06-25 23:28:00,
2013-06-25 18:30:00,84.3,67.9,29.72,SE,133,4.0,16.0,58,0.00,,,0.00,VWS V15.00,2013-06-25 23:30:00,
2013-06-25 18:33:00,81.6,67.3,29.71,SE,143,12.0,12.0,62,0.00,,SCT043,0.00,VWS V14.01,2013-06-25 23:33:00,
2013-06-25 18:38:00,81.2,67.4,29.71,SE,129,6.0,12.0,63,0.00,,SCT043,0.00,VWS V14.01,2013-06-25 23:38:00,
2013-06-25 18:43:00,81.1,67.8,29.71,SE,125,9.0,12.0,64,0.00,,SCT042,0.00,VWS V14.01,2013-06-25 23:43:00,
2013-06-25 18:45:00,84.0,66.1,29.72,SE,146,12.0,19.0,55,0.00,,,0.00,VWS V15.00,2013-06-25 23:45:00,
2013-06-25 18:48:00,80.9,67.6,29.71,ESE,118,4.0,11.0,64,0.00,,SCT042,0.00,VWS V14.01,2013-06-25 23:48:00,
2013-06-25 18:53:00,80.9,68.0,29.71,SE,125,4.0,11.0,65,0.00,,SCT042,0.00,VWS V14.01,2013-06-25 23:53:00,
2013-06-25 18:58:00,81.1,68.2,29.71,SE,137,13.0,13.0,65,0.00,,SCT042,0.00,VWS V14.01,2013-06-25 23:58:00,
2013-06-25 19:00:00,83.6,67.3,29.72,SE,127,6.0,16.0,58,0.00,,,0.00,VWS V15.00,2013-06-26 00:00:00,
2013-06-25 19:03:00,80.9,68.0,29.71,ESE,119,10.0,17.0,65,0.00,,SCT042,0.00,VWS V14.01,2013-06-26 00:03:00,
2013-06-25 19:08:00,80.7,67.8,29.71,SE,141,10.0,17.0,65,0.00,,SCT042,0.00,VWS V14.01,2013-06-26 00:08:00,
2013-06-25 19:13:00,80.3,68.8,29.71,SE,146,8.0,17.0,68,0.00,,CLR,0.00,VWS V14.01,2013-06-26 00:13:00,
2013-06-25 19:15:00,82.4,67.6,29.71,SE,130,8.0,15.0,61,0.00,,,0.00,VWS V15.00,2013-06-26 00:15:00,
2013-06-25 19:18:00,79.9,68.4,29.70,SE,139,5.0,12.0,68,0.00,,CLR,0.00,VWS V14.01,2013-06-26 00:18:00,
2013-06-25 19:23:00,79.8,68.3,29.70,SE,137,6.0,12.0,68,0.00,,CLR,0.00,VWS V14.01,2013-06-26 00:23:00,
2013-06-25 19:28:00,79.8,68.3,29.70,SE,137,11.0,14.0,68,0.00,,CLR,0.00,VWS V14.01,2013-06-26 00:28:00,
2013-06-25 19:30:00,81.8,67.1,29.71,SE,143,7.0,14.0,61,0.00,,,0.00,VWS V15.00,2013-06-26 00:30:00,
2013-06-25 19:33:00,79.9,68.8,29.70,SE,144,5.0,12.0,69,0.00,,CLR,0.00,VWS V14.01,2013-06-26 00:33:00,
2013-06-25 19:38:00,80.1,69.0,29.70,SE,137,5.0,12.0,69,0.00,,CLR,0.00,VWS V14.01,2013-06-26 00:38:00,
2013-06-25 19:43:00,79.9,69.2,29.70,SE,137,6.0,12.0,70,0.00,,CLR,0.00,VWS V14.01,2013-06-26 00:43:00,
2013-06-25 19:45:00,81.1,67.3,29.71,SE,135,11.0,12.0,63,0.00,,,0.00,VWS V15.00,2013-06-26 00:45:00,
2013-06-25 19:48:00,79.8,69.2,29.70,SE,136,4.0,11.0,70,0.00,,CLR,0.00,VWS V14.01,2013-06-26 00:48:00,
2013-06-25 19:53:00,79.4,69.2,29.70,SE,144,6.0,12.0,71,0.00,,CLR,0.00,VWS V14.01,2013-06-26 00:53:00,
2013-06-25 19:58:00,79.2,69.0,29.70,SE,142,5.0,12.0,71,0.00,,CLR,0.00,VWS V14.01,2013-06-26 00:58:00,
2013-06-25 20:00:00,81.1,67.8,29.71,SE,131,12.0,13.0,64,0.00,,,0.00,VWS V15.00,2013-06-26 01:00:00,
2013-06-25 20:03:00,79.0,69.2,29.70,SE,141,5.0,11.0,72,0.00,,CLR,0.00,VWS V14.01,2013-06-26 01:03:00,
2013-06-25 20:09:00,78.8,69.0,29.70,SE,137,2.0,11.0,72,0.00,,CLR,0.00,VWS V14.01,2013-06-26 01:09:00,
2013-06-25 20:14:00,78.6,68.8,29.70,SE,136,11.0,11.0,72,0.00,,CLR,0.00,VWS V14.01,2013-06-26 01:14:00,
2013-06-25 20:15:00,80.1,68.2,29.70,SE,142,5.0,17.0,67,0.00,,,0.00,VWS V15.00,2013-06-26 01:15:00,
2013-06-25 20:19:00,78.5,69.1,29.69,SE,127,5.0,6.0,73,0.00,,CLR,0.00,VWS V14.01,2013-06-26 01:19:00,
2013-06-25 20:24:00,78.3,68.9,29.69,SE,127,5.0,6.0,73,0.00,,CLR,0.00,VWS V14.01,2013-06-26 01:24:00,
2013-06-25 20:29:00,78.1,69.1,29.69,SE,127,4.0,7.0,74,0.00,,CLR,0.00,VWS V14.01,2013-06-26 01:29:00,
2013-06-25 20:30:00,79.9,68.4,29.70,SE,136,5.0,14.0,68,0.00,,,0.00,VWS V15.00,2013-06-26 01:30:00,
2013-06-25 20:34:00,77.7,69.2,29.69,SE,127,5.0,5.0,75,0.00,,SCT036,0.00,VWS V14.01,2013-06-26 01:34:00,
2013-06-25 20:39:00,77.6,69.1,29.69,SE,127,6.0,7.0,75,0.00,,SCT036,0.00,VWS V14.01,2013-06-26 01:39:00,
2013-06-25 20:44:00,77.2,69.1,29.69,SE,127,4.0,7.0,76,0.00,,SCT038,0.00,VWS V14.01,2013-06-26 01:44:00,
2013-06-25 20:45:00,79.9,69.2,29.70,SE,143,11.0,13.0,70,0.00,,,0.00,VWS V15.00,2013-06-26 01:45:00,
2013-06-25 20:49:00,77.0,68.9,29.68,SE,127,5.0,7.0,76,0.00,,SCT038,0.00,VWS V14.01,2013-06-26 01:49:00,
2013-06-25 20:54:00,76.8,69.1,29.68,SE,127,2.0,7.0,77,0.00,,SCT038,0.00,VWS V14.01,2013-06-26 01:54:00,
2013-06-25 20:59:00,76.5,69.1,29.68,SE,128,4.0,8.0,78,0.00,,SCT038,0.00,VWS V14.01,2013-06-26 01:59:00,
2013-06-25 21:00:00,79.2,69.0,29.70,SE,142,5.0,12.0,71,0.00,,,0.00,VWS V15.00,2013-06-26 02:00:00,
2013-06-25 21:04:00,76.3,68.9,29.69,SE,128,4.0,7.0,78,0.00,,SCT040,0.00,VWS V14.01,2013-06-26 02:04:00,
2013-06-25 21:09:00,76.0,69.4,29.69,SE,129,5.0,8.0,80,0.00,,SCT040,0.00,VWS V14.01,2013-06-26 02:09:00,
2013-06-25 21:14:00,75.4,69.2,29.68,SE,129,6.0,8.0,81,0.00,,SCT040,0.00,VWS V14.01,2013-06-26 02:14:00,
2013-06-25 21:15:00,78.6,68.8,29.69,SE,136,4.0,11.0,72,0.00,,,0.00,VWS V15.00,2013-06-26 02:15:00,
2013-06-25 21:19:00,75.3,69.1,29.68,SE,129,6.0,10.0,81,0.00,,SCT040,0.00,VWS V14.01,2013-06-26 02:19:00,
2013-06-25 21:24:00,75.3,69.1,29.68,SE,129,4.0,10.0,81,0.00,,SCT040,0.00,VWS V14.01,2013-06-26 02:24:00,
2013-06-25 21:29:00,75.3,69.1,29.68,SE,129,4.0,10.0,81,0.00,,SCT040,0.00,VWS V14.01,2013-06-26 02:29:00,
2013-06-25 21:30:00,77.9,68.9,29.69,SE,127,3.0,7.0,74,0.00,,,0.00,VWS V15.00,2013-06-26 02:30:00,
2013-06-25 21:34:00,75.1,68.9,29.68,SE,129,3.0,6.0,81,0.00,,CLR,0.00,VWS V14.01,2013-06-26 02:34:00,
2013-06-25 21:39:00,74.9,69.0,29.68,SE,129,3.0,6.0,82,0.00,,CLR,0.00,VWS V14.01,2013-06-26 02:39:00,
2013-06-25 21:44:00,74.9,69.0,29.69,SE,127,5.0,7.0,82,0.00,,CLR,0.00,VWS V14.01,2013-06-26 02:44:00,
2013-06-25 21:45:00,77.2,69.1,29.68,SE,127,3.0,7.0,76,0.00,,,0.00,VWS V15.00,2013-06-26 02:45:00,
2013-06-25 21:49:00,74.7,69.2,29.69,SE,127,5.0,8.0,83,0.00,,CLR,0.00,VWS V14.01,2013-06-26 02:49:00,
2013-06-25 21:54:00,74.6,69.1,29.69,SE,127,5.0,8.0,83,0.00,,CLR,0.00,VWS V14.01,2013-06-26 02:54:00,
2013-06-25 21:59:00,74.4,69.3,29.69,SE,127,6.0,9.0,84,0.00,,CLR,0.00,VWS V14.01,2013-06-26 02:59:00,
2013-06-25 22:00:00,76.5,69.1,29.69,SE,128,5.0,8.0,78,0.00,,,0.00,VWS V15.00,2013-06-26 03:00:00,
2013-06-25 22:04:00,74.4,69.3,29.69,SE,126,5.0,8.0,84,0.00,,CLR,0.00,VWS V14.01,2013-06-26 03:04:00,
2013-06-25 22:09:00,74.0,68.9,29.69,SE,127,7.0,14.0,84,0.00,,CLR,0.00,VWS V14.01,2013-06-26 03:09:00,
2013-06-25 22:14:00,74.0,68.9,29.68,SE,128,7.0,14.0,84,0.00,,CLR,0.00,VWS V14.01,2013-06-26 03:14:00,
2013-06-25 22:15:00,75.4,69.2,29.68,SE,129,6.0,8.0,81,0.00,,,0.00,VWS V15.00,2013-06-26 03:15:00,
2013-06-25 22:19:00,74.0,69.2,29.68,SE,127,9.0,10.0,85,0.00,,CLR,0.00,VWS V14.01,2013-06-26 03:19:00,
2013-06-25 22:25:00,74.0,69.2,29.68,SE,131,12.0,12.0,85,0.00,,CLR,0.00,VWS V14.01,2013-06-26 03:25:00,
2013-06-25 22:30:00,74.0,69.2,29.68,SE,135,7.0,12.0,85,0.00,,CLR,0.00,VWS V14.01,2013-06-26 03:30:00,
2013-06-25 22:35:00,74.2,69.4,29.68,SE,134,8.0,11.0,85,0.00,,CLR,0.00,VWS V14.01,2013-06-26 03:35:00,
2013-06-25 22:40:00,74.0,69.2,29.68,SE,135,10.0,11.0,85,0.00,,CLR,0.00,VWS V14.01,2013-06-26 03:40:00,
2013-06-25 22:45:00,73.9,69.1,29.67,SE,132,8.0,11.0,85,0.00,,CLR,0.00,VWS V14.01,2013-06-26 03:45:00,
2013-06-25 22:50:00,73.9,69.1,29.67,SE,134,8.0,12.0,85,0.00,,CLR,0.00,VWS V14.01,2013-06-26 03:50:00,
2013-06-25 22:55:00,74.0,69.2,29.67,SE,137,5.0,12.0,85,0.00,,CLR,0.00,VWS V14.01,2013-06-26 03:55:00,
2013-06-25 23:00:00,74.2,69.4,29.68,SE,137,5.0,12.0,85,0.00,,CLR,0.00,VWS V14.01,2013-06-26 04:00:00,
2013-06-25 23:01:00,74.2,69.4,29.68,SE,137,6.0,7.0,85,0.00,,CLR,0.00,VWS V14.01,2013-06-26 04:01:00,
2013-06-25 23:02:00,74.2,69.4,29.68,SE,137,5.0,7.0,85,0.00,,CLR,0.00,VWS V14.01,2013-06-26 04:02:00,
2013-06-25 23:06:00,74.2,69.1,29.68,SE,137,5.0,12.0,84,0.00,,CLR,0.00,VWS V14.01,2013-06-26 04:06:00,
2013-06-25 23:09:00,74.2,69.1,29.68,SE,137,4.0,12.0,84,0.00,,CLR,0.00,VWS V14.01,2013-06-26 04:09:00,
2013-06-25 23:10:00,74.2,69.1,29.68,SE,137,5.0,12.0,84,0.00,,CLR,0.00,VWS V14.01,2013-06-26 04:10:00,
2013-06-25 23:15:00,74.2,69.1,29.68,SE,137,5.0,12.0,84,0.00,,CLR,0.00,VWS V14.01,2013-06-26 04:15:00,
2013-06-25 23:20:00,74.2,69.1,29.68,SE,137,7.0,7.0,84,0.00,,CLR,0.00,VWS V14.01,2013-06-26 04:20:00,
2013-06-25 23:25:00,74.0,69.2,29.68,SE,135,5.0,10.0,85,0.00,,CLR,0.00,VWS V14.01,2013-06-26 04:25:00,
2013-06-25 23:30:00,73.9,69.1,29.68,SE,135,6.0,10.0,85,0.00,,CLR,0.00,VWS V14.01,2013-06-26 04:30:00,
2013-06-25 23:35:00,73.9,69.1,29.68,SE,130,6.0,10.0,85,0.00,,CLR,0.00,VWS V14.01,2013-06-26 04:35:00,
2013-06-25 23:40:00,73.9,69.1,29.68,SE,130,6.0,11.0,85,0.00,,CLR,0.00,VWS V14.01,2013-06-26 04:40:00,
2013-06-25 23:45:00,73.9,69.1,29.68,SE,132,6.0,6.0,85,0.00,,CLR,0.00,VWS V14.01,2013-06-26 04:45:00,
2013-06-25 23:50:00,73.9,69.1,29.68,SE,133,9.0,10.0,85,0.00,,CLR,0.00,VWS V14.01,2013-06-26 04:50:00,
2013-06-25 23:57:00,73.9,69.4,29.68,SE,132,9.0,11.0,86,0.00,,CLR,0.00,VWS V14.01,2013-06-26 04:57:00,